TimeCST,TemperatureF,Dew PointF,Humidity,Sea Level PressureIn,VisibilityMPH,Wind Direction,Wind SpeedMPH,Gust SpeedMPH,PrecipitationIn,Events,Conditions,WindDirDegrees,DateUTC
12:53 AM,59.0,55.4,88,29.98,8.0,SSE,12.7,-,N/A,,Mostly Cloudy,150,2012-12-01 06:53:00
1:53 AM,59.0,55.0,87,29.96,8.0,SSE,10.4,-,N/A,,Overcast,160,2012-12-01 07:53:00
2:14 AM,60.8,55.4,82,29.97,8.0,South,15.0,-,N/A,,Overcast,170,2012-12-01 08:14:00
2:53 AM,60.1,55.9,86,29.95,8.0,SSE,12.7,-,N/A,,Overcast,150,2012-12-01 08:53:00
3:10 AM,60.8,55.4,82,29.96,8.0,SSE,10.4,19.6,N/A,,Overcast,160,2012-12-01 09:10:00
3:19 AM,60.8,55.4,82,29.95,8.0,SSE,11.5,-,N/A,,Overcast,160,2012-12-01 09:19:00
3:53 AM,60.1,57.0,90,29.93,8.0,SSE,10.4,-,N/A,,Overcast,150,2012-12-01 09:53:00
4:53 AM,61.0,57.9,90,29.91,8.0,SSE,10.4,-,N/A,,Overcast,160,2012-12-01 10:53:00
5:53 AM,64.4,59.0,83,29.91,10.0,South,18.4,25.3,N/A,,Overcast,170,2012-12-01 11:53:00
6:53 AM,64.0,59.0,84,29.90,10.0,South,18.4,26.5,N/A,,Mostly Cloudy,170,2012-12-01 12:53:00
7:53 AM,64.9,60.1,84,29.89,9.0,South,21.9,28.8,N/A,,Overcast,170,2012-12-01 13:53:00
8:53 AM,66.9,60.1,79,29.87,10.0,South,24.2,31.1,N/A,,Mostly Cloudy,170,2012-12-01 14:53:00
9:53 AM,68.0,60.1,76,29.87,10.0,South,28.8,35.7,N/A,,Overcast,180,2012-12-01 15:53:00
10:53 AM,70.0,60.1,71,29.85,10.0,South,25.3,31.1,N/A,,Overcast,180,2012-12-01 16:53:00
11:25 AM,71.6,59.0,64,29.85,10.0,South,27.6,38.0,N/A,,Mostly Cloudy,180,2012-12-01 17:25:00
11:53 AM,73.9,59.0,59,29.83,10.0,South,24.2,38.0,N/A,,Scattered Clouds,190,2012-12-01 17:53:00
12:53 PM,75.0,59.0,57,29.79,10.0,South,26.5,38.0,N/A,,Scattered Clouds,180,2012-12-01 18:53:00
1:53 PM,75.2,57.2,53,29.80,10.0,South,19.6,31.1,N/A,,Partly Cloudy,190,2012-12-01 19:53:00
2:53 PM,77.0,57.0,50,29.77,10.0,South,27.6,35.7,N/A,,Partly Cloudy,180,2012-12-01 20:53:00
3:53 PM,75.9,57.0,52,29.78,10.0,South,20.7,31.1,N/A,,Clear,180,2012-12-01 21:53:00
4:53 PM,75.2,57.2,53,29.82,10.0,South,11.5,-,N/A,,Clear,190,2012-12-01 22:53:00
5:53 PM,73.0,57.9,59,29.83,10.0,South,11.5,-,N/A,,Clear,190,2012-12-01 23:53:00
6:53 PM,73.0,59.0,61,29.85,10.0,South,13.8,-,N/A,,Clear,190,2012-12-02 00:53:00
7:53 PM,71.1,57.9,63,29.87,10.0,SSE,6.9,-,N/A,,Clear,160,2012-12-02 01:53:00
8:53 PM,68.0,57.9,70,29.87,10.0,SSE,8.1,-,N/A,,Clear,160,2012-12-02 02:53:00
9:53 PM,68.0,59.0,73,29.88,10.0,SSE,10.4,-,N/A,,Clear,160,2012-12-02 03:53:00
10:53 PM,66.0,59.0,78,29.90,10.0,South,4.6,-,N/A,,Clear,180,2012-12-02 04:53:00
11:53 PM,64.9,59.0,81,29.90,10.0,Calm,Calm,-,N/A,,Clear,0,2012-12-02 05:53:00